Location: Unspecified
(0.0000°N, 0.0000°E)
Time: 19:41:06
(UTC+00:00)

Hubble Space Telescope - Pass Details

Date: 22 April 2018
Orbit: 537 x 540 km, 28.5° (Epoch: 11 November)

Event Time Altitude Azimuth Distance (km) Brightness Sun altitude
Rises 19:24:32 0° 268° (W) 2,674 5.7 -21.0°
Reaches altitude 10° 19:27:20 10° 287° (WNW) 1,782 4.6 -21.7°
Maximum altitude 19:30:14 18° 332° (NNW) 1,336 3.2 -22.4°
Enters shadow 19:33:01 10° 15° (NNE) 1,754 3.4 -23.1°
